OBJECT D, 63294

Orbit data source: Space-Track

You're viewing an Uncataloged Satellite

Recently launched and/or uncataloged satellites may have evolving metadata. Metadata may include but not limited to: Owner, Maufacturer, Bus, Motor, and Mission.

OBJECT D, 63294 is a satellite owned by Yunyao yuhang (CN) in SSO that was launched on Mon, 17 Mar 2025 UTC via a GUSHENXING 1 launch vehicle from the Jiuquan Satellite Launch Center, China (JSC). Unknown objects in Earth's orbit typically refer to objects detected orbiting the Earth but have not yet been identified or cataloged. These objects could be anything from previously untracked satellites, spent rocket stages, debris from satellite collisions, or even natural meteoroids temporarily captured by Earth's gravity.

Loading next visibility...
Identifier
63294, 2025-055D
Orbit
SSO
Last TLE update
1 day ago
Origin
Flag of CNYYAO (CN / PRC)
Manufacturer
Changguang WJ
Mission
Operational spacecraft
Bus & Motor
YY-1, Unknown motor
Mass
~50 kg wet, ~50 kg dry
Launch date (UTC)
2025-03-17 (1 month ago)
Launch vehicle
GUSHENXING 1
Launch site
Jiuquan Satellite Launch Center, China (JSC)
Object type
Unknown
Shape & HBR
Unknown
Radar Cross Section
Medium (>0.1 m² and <1 m²)

Expand to show TLE details & history

TLE from 1 day ago
0 OBJECT D
1 63294U 25055D   25119.18548410  .00014484  00000-0  87249-3 0  9994
2 63294  97.6056 254.2783 0014369 142.8685 217.3541 15.10811027  6439
Epoch: 2025-04-29T04:27Z
Definitive object data (Epoch: 2025-04-29T04:27:05.826Z)
Latitude
-0.00005°
Longitude
-29.88475°
Altitude
544.699 km
Speed
7.585 km/s
True Right ascension
16h 57m 06s
True Declination
0° 00' 00"
Sunlit
Object was in full shadow at TLE epoch
Visualization TLE readout
Latitude
6.1589°
Longitude
152.15277°
Altitude
527.96 km
Speed
7.604 km/s
Apparent Right ascension
05h 12m 54s
Apparent Declination
-15° 50' 08"
Sunlit
Object is in daylight
Visualization observer readout
Local Sidereal Time
17:23:38
Azimuth
6.304° NNE
Elevation
-65.806°
Doppler factor
1
Orbital elements
Apogee altitude
540.639 km
Perigee altitude
520.785 km
Semi-major axis
6,908.849 km
Eccentricity
0.0014369
Inclination
97.6056°
RAAN
254.2783°
Arg. of periapsis
142.8685°
True anomaly
217.25434°
Mean anomaly
217.3541°
Eccentric anomaly
217.30421°
Mean motion
3.7795 °/min
BSTAR
0.00087249
Orbital period
95.25 mins
Loading maneuver chart data...
Loading SW <> Apogee altitude chart data...
Loading historical data...
Loading historical data...
Loading historical data...
Loading historical data...
Loading historical data...
Loading historical data...
Loading historical data...

OBJECT D Visibility forecast

Observer location: undefined°, undefined°

Span
Click to sort rows by Start time (UTC) header in descending order
Start Az.
Max El. time (UTC)
Max El. Az.
Max El.
End time (UTC)
End Az.
5 mins2025-04-30 22:21:43.699Z334.855° NNW2025-04-30 22:23:43.699Z271.216° WNW29.909°2025-04-30 22:26:43.699Z220.552° SW
6 mins2025-05-01 09:02:43.699Z170.377° S2025-05-01 09:04:43.699Z192.751° SSW44.136°2025-05-01 09:08:43.699Z346.429° N
|